Weather History for KJSO - October, 2012

Change the Weather History Date:

Saturday, October 27, 2012

  Actual Average (KTYR) Record (KTYR)
Temperature  
Mean Temperature 46 °F 63 °F  
Max Temperature 55 °F 74 °F 89 °F (1938)
Min Temperature 37 °F 53 °F 30 °F (1957)
Degree Days  
Heating Degree Days 19 4  
Month to date heating degree days 53  
Since 1 July heating degree days 58  
Cooling Degree Days 0 2  
Month to date cooling degree days 120  
Year to date cooling degree days 2384  
Moisture  
Dew Point 35 °F    
Average Humidity 65    
Maximum Humidity 91    
Minimum Humidity 41    
Precipitation  
Precipitation 0.00 in 0.16 in 3.59 in (1970)
Month to date precipitation 4.20  
Year to date precipitation 36.80  
Snow  
Snow 0.00 in - - ()
Month to date snowfall  
Since 1 July snowfall  
Since 1 September snowfall  
Snow Depth -    
Sea Level Pressure  
Sea Level Pressure 30.22 in    
Wind  
Wind Speed 6 mph (North)    
Max Wind Speed 13 mph    
Max Gust Speed 16 mph    
Visibility 10 miles    
Events      
T = Trace of Precipitation, MM = Missing Value Source: NWS Daily Summary

Daily Weather History Graph

Daily Weather History Graph

Search for Another Location

Airport or City:

Trip Planner

Search our weather history database for the weather conditions in past years. The results will help you decide how hot, cold, wet, or windy it might be!

Date:

Astronomy

Oct. 27, 2012 Rise Set
Actual Time 7:33 AM CDT 6:35 PM CDT
Civil Twilight 7:08 AM CDT 7:00 PM CDT
Nautical Twilight 6:39 AM CDT 7:28 PM CDT
Astronomical Twilight 6:11 AM CDT 7:57 PM CDT
Moon 5:18 PM CDT (10/27) 5:34 AM CDT (10/27)
Length of Visible Light 11h 51m
Length of Day
11h 01m
Waxing Gibbous, 96% of the Moon is Illuminated
Oct 27
Waxing Gibbous
Oct 29
Full
Nov 6
Last Quarter
Nov 13
New
Nov 20
First Quarter

Hourly Weather History & Observations

Time (CDT) Temp. Windchill Dew Point Humidity Pressure Visibility Wind Dir Wind Speed Gust Speed Precip Events Conditions
12:15 AM 45.1 °F 41.4 °F 37.4 °F 74% 30.24 in 10.0 mi North 6.9 mph - N/A   Clear
12:35 AM 44.6 °F 42.2 °F 37.2 °F 75% 30.24 in 10.0 mi North 4.6 mph - N/A   Clear
12:55 AM 43.9 °F 40.5 °F 37.0 °F 77% 30.25 in 10.0 mi North 5.8 mph - N/A   Clear
1:15 AM 43.5 °F 40.1 °F 36.9 °F 77% 30.24 in 10.0 mi North 5.8 mph - N/A   Clear
1:35 AM 43.0 °F 40.3 °F 36.9 °F 79% 30.24 in 10.0 mi North 4.6 mph - N/A   Clear
1:55 AM 42.8 °F 39.3 °F 36.5 °F 78% 30.23 in 10.0 mi North 5.8 mph - N/A   Clear
2:15 AM 42.3 °F 38.6 °F 36.1 °F 79% 30.23 in 10.0 mi North 5.8 mph - N/A   Clear
2:35 AM 41.9 °F 37.5 °F 36.1 °F 80% 30.24 in 10.0 mi North 6.9 mph - N/A   Clear
2:55 AM 41.4 °F 36.8 °F 36.0 °F 81% 30.23 in 10.0 mi North 6.9 mph - N/A   Clear
3:15 AM 41.2 °F 36.6 °F 35.8 °F 81% 30.22 in 10.0 mi North 6.9 mph - N/A   Clear
3:35 AM 41.0 °F 37.1 °F 35.8 °F 82% 30.21 in 10.0 mi North 5.8 mph - N/A   Clear
3:55 AM 40.6 °F 36.0 °F 35.6 °F 82% 30.21 in 10.0 mi North 6.9 mph - N/A   Clear
4:15 AM 40.3 °F 35.5 °F 35.6 °F 83% 30.21 in 10.0 mi North 6.9 mph - N/A   Clear
4:35 AM 40.1 °F 35.3 °F 35.6 °F 84% 30.21 in 10.0 mi North 6.9 mph - N/A   Clear
4:55 AM 39.9 °F 36.7 °F 35.4 °F 84% 30.22 in 10.0 mi North 4.6 mph - N/A   Clear
5:15 AM 39.6 °F 36.3 °F 35.4 °F 85% 30.22 in 10.0 mi North 4.6 mph - N/A   Clear
5:35 AM 39.4 °F 35.2 °F 35.4 °F 86% 30.22 in 10.0 mi North 5.8 mph - N/A   Clear
5:55 AM 39.2 °F 35.0 °F 35.6 °F 87% 30.22 in 10.0 mi North 5.8 mph - N/A   Clear
6:15 AM 38.7 °F 35.2 °F 35.2 °F 87% 30.22 in 10.0 mi North 4.6 mph - N/A   Clear
6:55 AM 38.3 °F 33.9 °F 35.1 °F 88% 30.24 in 10.0 mi North 5.8 mph - N/A   Clear
7:15 AM 37.8 °F 33.3 °F 35.1 °F 90% 30.25 in 10.0 mi North 5.8 mph - N/A   Clear
7:35 AM 37.6 °F 33.1 °F 35.1 °F 91% 30.26 in 10.0 mi North 5.8 mph - N/A   Clear
7:55 AM 37.6 °F 34.0 °F 35.2 °F 91% 30.26 in 10.0 mi North 4.6 mph - N/A   Clear
8:15 AM 38.3 °F 33.9 °F 35.6 °F 90% 30.27 in 10.0 mi North 5.8 mph - N/A   Clear
8:35 AM 39.2 °F 34.2 °F 35.6 °F 87% 30.28 in 10.0 mi NNE 6.9 mph - N/A   Clear
8:55 AM 40.3 °F 34.9 °F 35.6 °F 83% 30.28 in 10.0 mi North 8.1 mph - N/A   Clear
9:15 AM 41.4 °F 36.8 °F 35.6 °F 80% 30.29 in 10.0 mi NNE 6.9 mph - N/A   Clear
9:35 AM 43.0 °F 36.4 °F 34.9 °F 73% 30.29 in 10.0 mi NNE 12.7 mph - N/A   Clear
9:55 AM 43.7 °F 38.1 °F 34.0 °F 69% 30.29 in 10.0 mi NNE 10.4 mph - N/A   Clear
10:35 AM 46.4 °F 41.9 °F 34.5 °F 63% 30.29 in 10.0 mi NNE 9.2 mph - N/A   Clear
10:55 AM 47.5 °F - 34.0 °F 59% 30.29 in 10.0 mi NNE 4.6 mph - N/A   Clear
11:15 AM 48.2 °F - 33.4 °F 57% 30.29 in 10.0 mi NNE 10.4 mph - N/A   Clear
11:35 AM 49.1 °F - 33.6 °F 55% 30.29 in 10.0 mi North 8.1 mph - N/A   Clear
11:55 AM 50.0 °F - 34.2 °F 55% 30.28 in 10.0 mi North 8.1 mph - N/A   Clear
12:15 PM 50.4 °F - 33.6 °F 53% 30.27 in 10.0 mi NNE 8.1 mph - N/A   Clear
12:35 PM 51.4 °F - 34.3 °F 52% 30.27 in 10.0 mi NNW 6.9 mph - N/A   Clear
12:55 PM 51.4 °F - 34.3 °F 52% 30.26 in 10.0 mi NNW 5.8 mph 9.2 mph N/A   Clear
1:15 PM 52.7 °F - 32.7 °F 47% 30.23 in 10.0 mi North 10.4 mph - N/A   Clear
1:35 PM 52.9 °F - 33.1 °F 47% 30.22 in 10.0 mi North 9.2 mph - N/A   Clear
1:55 PM 53.8 °F - 33.1 °F 45% 30.21 in 10.0 mi NW 5.8 mph 16.1 mph N/A   Clear
2:15 PM 54.3 °F - 32.5 °F 44% 30.20 in 10.0 mi NNW 5.8 mph - N/A   Clear
2:35 PM 54.5 °F - 32.2 °F 43% 30.18 in 10.0 mi NNE 8.1 mph - N/A   Clear
2:55 PM 54.9 °F - 32.4 °F 42% 30.17 in 10.0 mi NNW 6.9 mph - N/A   Clear
3:15 PM 54.9 °F - 32.5 °F 43% 30.16 in 10.0 mi NNW 5.8 mph - N/A   Clear
3:35 PM 55.4 °F - 32.7 °F 42% 30.15 in 10.0 mi North 6.9 mph - N/A   Clear
3:55 PM 55.8 °F - 33.1 °F 42% 30.15 in 10.0 mi NW 5.8 mph - N/A   Clear
4:15 PM 55.8 °F - 32.2 °F 41% 30.14 in 10.0 mi NNE 5.8 mph - N/A   Clear
4:35 PM 55.8 °F - 32.9 °F 42% 30.14 in 10.0 mi North 5.8 mph - N/A   Clear
4:55 PM 55.6 °F - 32.5 °F 42% 30.14 in 10.0 mi NNW 6.9 mph - N/A   Clear
5:15 PM 55.4 °F - 33.4 °F 43% 30.14 in 10.0 mi NNE 6.9 mph - N/A   Clear
5:35 PM 54.9 °F - 34.0 °F 45% 30.14 in 10.0 mi NNE 3.5 mph - N/A   Clear
5:55 PM 54.1 °F - 33.6 °F 46% 30.15 in 10.0 mi NNE 4.6 mph - N/A   Clear
6:15 PM 52.9 °F - 34.5 °F 50% 30.15 in 10.0 mi North 5.8 mph - N/A   Clear
6:35 PM 51.1 °F - 34.7 °F 54% 30.15 in 10.0 mi Calm Calm - N/A   Clear
6:55 PM 50.4 °F - 35.6 °F 57% 30.16 in 10.0 mi Calm Calm - N/A   Clear
7:15 PM 49.3 °F - 35.8 °F 60% 30.16 in 10.0 mi Calm Calm - N/A   Clear
7:35 PM 48.4 °F - 36.0 °F 62% 30.17 in 10.0 mi Calm Calm - N/A   Clear
7:55 PM 48.2 °F - 35.6 °F 62% 30.17 in 10.0 mi NNW 3.5 mph - N/A   Clear
8:15 PM 47.7 °F - 35.4 °F 63% 30.17 in 10.0 mi NNW 3.5 mph - N/A   Clear
8:35 PM 47.3 °F - 35.1 °F 62% 30.18 in 10.0 mi Calm Calm - N/A   Clear
8:55 PM 46.8 °F - 35.1 °F 64% 30.18 in 10.0 mi NNW 3.5 mph - N/A   Clear
9:15 PM 46.9 °F - 34.7 °F 62% 30.19 in 10.0 mi NNW 3.5 mph - N/A   Clear
9:35 PM 46.9 °F - 33.8 °F 60% 30.19 in 10.0 mi NNW 3.5 mph - N/A   Clear
9:55 PM 46.6 °F - 33.6 °F 61% 30.20 in 10.0 mi Calm Calm - N/A   Clear
10:15 PM 46.6 °F - 32.9 °F 59% 30.20 in 10.0 mi Calm Calm - N/A   Clear
10:35 PM 46.4 °F 45.2 °F 32.7 °F 59% 30.21 in 10.0 mi NNW 3.5 mph - N/A   Clear
11:15 PM 46.4 °F - 32.0 °F 57% 30.21 in 10.0 mi Calm Calm - N/A   Clear
11:55 PM 45.9 °F - 31.8 °F 58% 30.21 in 10.0 mi Calm Calm - N/A   Clear